Miscellaneous Local Product
Issued by NWS Hastings, NE

Home | Current Version | Previous Version | Text Only | Print | Product List | Glossary Off
Versions: 1 2 3 4 5 6 7 8 9 10 11 12 13 14 15 16 17 18 19 20 21 22 23 24 25 26 27 28 29 30 31 32 33 34 35 36 37 38 39 40 41 42 43 44 45 46 47 48 49 50

000
AXUS43 KGID 190402
MISGRI

GID CWA HOURLY WEATHER ROUNDUP
NATIONAL WEATHER SERVICE HASTINGS NE
1100 PM CDT MON AUG 18 2014

NOTE: "FAIR" INDICATES FEW OR NO CLOUDS BELOW 12,000 FEET WITH NO
SIGNIFICANT WEATHER AND/OR OBSTRUCTIONS TO VISIBILITY.

...SOUTH CENTRAL NEBRASKA...

CITY           SKY/WX    TMP DP  RH WIND       PRES   REMARKS
GRAND ISLAND   MOCLDY    74  69  85 S5        29.85F
HASTINGS       MOCLDY    73  67  81 CALM      29.85F
KEARNEY        CLOUDY    72  70  94 E5        29.86F
ORD            PTCLDY    70  67  90 NW5       29.83F
AURORA         MOCLDY    71  71  99 CALM      29.84S
LEXINGTON      CLOUDY    70  69  94 NE3       29.86F
HOLDREGE       CLOUDY    73  69  88 SE6       29.88S
HEBRON         PTCLDY    72  69  89 CALM      29.82F

...NEBRASKA PANHANDLE...

CITY           SKY/WX    TMP DP  RH WIND       PRES   REMARKS
CHADRON        CLEAR     69  55  60 SE6       29.93S
ALLIANCE       CLEAR     65  56  72 SE8       29.97F
SCOTTSBLUFF    CLEAR     65  59  81 E6        29.96S
SIDNEY         PTCLDY    60  54  80 W5        29.99R

...WESTERN AND NORTH CENTRAL NEBRASKA...

CITY           SKY/WX    TMP DP  RH WIND       PRES   REMARKS
VALENTINE      CLEAR     66  58  75 S6        29.91S
AINSWORTH      CLEAR     69  58  69 N3        29.90F
ONEILL         CLEAR     70  62  76 NW3       29.87S
BROKEN BOW     MOCLDY    68  65  90 NW3       29.88S
IMPERIAL       CLOUDY    68  57  68 SW6       29.91R
NORTH PLATTE   CLOUDY    68  64  87 CALM      29.88F
MCCOOK         CLOUDY    75  55  49 S8        29.89R

...EASTERN NEBRASKA...

CITY           SKY/WX    TMP DP  RH WIND       PRES   REMARKS
NORFOLK        PTCLDY    74  65  73 NW3       29.82S
SO SIOUX CITY  CLEAR     71  67  87 W6        29.79S
TEKAMAH        PTCLDY    73  69  87 SW6       29.78F
COLUMBUS       PTCLDY    75  70  83 SW5       29.82F
ALBION         PTCLDY    73  66  80 N8        29.84S
OMAHA EPPLEY   PTCLDY    77  68  73 CALM      29.79F
OFFUTT AFB     PTCLDY    75  74  97 S5        29.80S
MILLARD        PTCLDY    79  70  75 CALM      29.80F
LINCOLN        PTCLDY    75  69  81 CALM      29.81F
NEBRASKA CITY  PTCLDY    74  69  84 S3        29.80F
BEATRICE       CLEAR     73  71  95 CALM      29.82S
FALLS CITY     CLEAR     75  70  84 SE3       29.79F

...NORTHERN KANSAS...

CITY           SKY/WX    TMP DP  RH WIND       PRES   REMARKS
GOODLAND       CLOUDY    67  59  75 E22G31    30.01R
HILL CITY      CLOUDY    70  61  73 N14G38    29.95R THUNDER
NORTON         CLEAR     70  64  83 SW7       29.92R
PHILLIPSBURG   TSTM      72  66  83 SW14G24   29.89R
BELOIT         CLEAR     77  72  83 N7        29.80S
HAYS           CLOUDY    84  54  34 W14       29.82S
RUSSELL        CLOUDY    82  69  64 S10       29.81R
CONCORDIA      MOCLDY    75  72  90 N3        29.81S
SALINA         CLOUDY    82  71  69 SE7       29.78F
TOPEKA         CLEAR     77  72  84 CALM      29.80S



USA.gov is the U.S. government's official web portal to all federal, state and local government web resources and services.